Home > Weather > Asheville > Past weeks

Flag for USA Past Weather in Asheville, North Carolina, USA — Yesterday and Last 2 Weeks

Now
69 °F

Passing clouds.


Feels Like: 69 °F
Forecast: 69 / 89 °F
Wind: No wind

Location: Asheville Regional Airport

Current Time: Jul 27, 2016 at 7:47:04 AM

Latest Report: Jul 27, 2016 at 6:54 AM


Visibility: 10 mi

Pressure: 30.04 "Hg (27.86 "Hg at 647m altitude)

Humidity: 90%

Dew Point: 66 °F

Location of AshevilleLocation

Past Weather in Asheville — Graph

°F

Asheville Temperature Yesterday

Maximum temperature yesterday: 90 °F (at 1:54 PM)
Minimum temperature yesterday: 69 °F (at 4:54 AM)
Average temperature yesterday: 78 °F

High & Low Weather Summary for the Past Weeks

 TemperatureHumidityPressure
High91 °F (Jul 20, 3:54 PM)97% (Jul 14, 6:54 AM)30.32 "Hg (Jul 14, 6:54 AM)
Low63 °F (Jul 17, 3:01 AM)32% (Jul 20, 3:54 PM)29.98 "Hg (Jul 23, 6:54 PM)
Average74 °F75%30.11 "Hg
* Reported Jul 12 5:54 AM — Jul 27 5:54 AM, Asheville, Weather by CustomWeather, © 2016

Note: Actual official high and low records may vary slightly from our data, if they occured in-between our weather recording intervals... More about our weather records

Advertising

Asheville Weather History for the Previous 24 Hours

Scroll right to see more
 ConditionsComfort  
Time TempWeatherWind HumidityBarometerVisibility
5:54 AM
Wed, Jul 27
70 °FPassing clouds.No wind87%30.02 "Hg10 mi
4:54 AM70 °FPassing clouds.No wind90%30.01 "Hg9 mi
3:54 AM71 °FClear.No wind90%30.00 "Hg10 mi
2:54 AM72 °FPassing clouds.No wind91%30.00 "Hg10 mi
1:54 AM74 °FOvercast.No wind82%30.01 "Hg10 mi
12:54 AM74 °FPassing clouds.No wind88%30.03 "Hg10 mi
11:54 PM
Tue, Jul 26
75 °FClear.No wind82%30.02 "Hg10 mi
10:54 PM75 °FClear.7 mph85%30.03 "Hg10 mi
9:54 PM77 °FPartly cloudy.3 mph79%30.02 "Hg10 mi
8:54 PM79 °FSunny.6 mph74%30.00 "Hg10 mi
7:54 PM81 °FSunny.No wind67%29.99 "Hg10 mi
6:54 PM80 °FScattered clouds.No wind67%30.00 "Hg10 mi
5:54 PM80 °FPartly sunny.No wind67%30.00 "Hg10 mi
5:01 PM79 °FScattered clouds.5 mph67%30.10 "Hg10 mi
4:54 PM79 °FThundershowers. Scattered clouds.5 mph67%30.02 "Hg10 mi
3:59 PM80 °FThunderstorms. Sunny.12 mph64%30.10 "Hg10 mi
3:54 PM80 °FSunny.12 mph67%30.01 "Hg10 mi
2:54 PM88 °FSunny.6 mph43%29.98 "Hg10 mi
1:54 PM90 °FSunny.3 mph41%30.01 "Hg10 mi
12:54 PM88 °FSunny.12 mph46%30.03 "Hg10 mi
11:54 AM86 °FSunny.14 mph55%30.05 "Hg10 mi
10:54 AM82 °FOvercast.9 mph63%30.06 "Hg10 mi
9:54 AM78 °FSunny.9 mph71%30.07 "Hg10 mi
8:54 AM76 °FSunny.9 mph74%30.07 "Hg10 mi
7:54 AM71 °FSunny.8 mph84%30.07 "Hg10 mi
Weather by CustomWeather, © 2016

See weather overviewHow to use our weather pages